This is the latest recevied weather packets stored in our database for station/object N8XHB. If no packets are shown the sender has not sent any weather packets the latest 1 day(s).
| Time | Temp. | Humidity | Pressure | Rain* | Wind** | Luminosity | Snow |
|---|---|---|---|---|---|---|---|
| 1778059041 | 2.22° C | 76% | 1010.4 hPa | 0 mm | - | 0 W/m² | - |
| 1778058738 | 2.78° C | 75% | 1010.5 hPa | 0 mm | - | 0 W/m² | - |
| 1778058436 | 2.78° C | 75% | 1010.4 hPa | 0 mm | - | 0 W/m² | - |
| 1778056011 | 3.89° C | 68% | 1010.4 hPa | 0 mm | - | 0 W/m² | - |
| 1778055711 | 4.44° C | 68% | 1010.3 hPa | 0 mm | - | 0 W/m² | - |
| 1778055409 | 4.44° C | 68% | 1010.1 hPa | 0 mm | - | 0 W/m² | - |
| 1778055107 | 4.44° C | 67% | 1010.4 hPa | 0 mm | - | 0 W/m² | - |
| 1778054804 | 4.44° C | 67% | 1010.4 hPa | 0 mm | - | 0 W/m² | - |
| 1778053895 | 5° C | 65% | 1010.3 hPa | 0 mm | - | 0 W/m² | - |
| 1778053593 | 5° C | 65% | 1010.4 hPa | 0 mm | - | 0 W/m² | - |
| 1778053290 | 5° C | 66% | 1010.5 hPa | 0 mm | - | 0 W/m² | - |
| 1778052685 | 5° C | 67% | 1010.3 hPa | 0 mm | - | 0 W/m² | - |
| 1778052381 | 5° C | 67% | 1010.3 hPa | 0 mm | - | 0 W/m² | - |
| 1778051777 | 4.44° C | 67% | 1010.5 hPa | 0 mm | - | 0 W/m² | - |
| 1778051474 | 5° C | 65% | 1010.3 hPa | 0 mm | - | 0 W/m² | - |
| 1778051171 | 5° C | 64% | 1010.4 hPa | 0 mm | - | 0 W/m² | - |
| 1778050868 | 5° C | 64% | 1010.3 hPa | 0 mm | - | 0 W/m² | - |
| 1778049050 | 6.11° C | 60% | 1010.5 hPa | 0 mm | - | 0 W/m² | - |
| 1778048445 | 6.67° C | 59% | 1010.5 hPa | 0 mm | - | 0 W/m² | - |
| 1778048141 | 6.67° C | 59% | 1010.7 hPa | 0 mm | - | 0 W/m² | - |
| 1778047234 | 6.67° C | 58% | 1011 hPa | 0 mm | - | 0 W/m² | - |
| 1778046931 | 6.67° C | 58% | 1011 hPa | 0 mm | - | 0 W/m² | - |
| 1778046325 | 6.67° C | 57% | 1010.6 hPa | 0 mm | - | 0 W/m² | - |
| 1778045719 | 6.67° C | 56% | 1010.7 hPa | 0 mm | - | 0 W/m² | - |
| 1778045115 | 6.67° C | 56% | 1011 hPa | 0 mm | - | 0 W/m² | - |
* Rain latest hour (hover to see other rain measurements)
** Current wind speed in m/s (hover to see current wind gust speed)